Find Starlink 3626

NORAD ID: 51792 Int'l Des: 2022-017 Owner: SPXS Country: US Constellation: starlink operational
LEOCIRCULAR

Live Position

Loading 3D Globe...

About Starlink 3626

Description loading...

Upcoming Passes

Passes for default location (London). Set your location on the main map for personalized predictions.

Altitude History

Loading altitude history...

Two-Line Element Set

1 51792U 22017AA 26111.82317485 .00000357 00000-0 40511-4 0 9995
2 51792 53.2168 155.4870 0001221 80.1066 280.0064 15.08835699230489
Epoch: Apr 21, 2026 • Age: 22 hours

Current Status

Altitude 548.0 km
Velocity 7.59 km/s
Sub-Earth Point -26.23°S, 118.31°W
Launch Date Feb 25, 2022
Age 4.1 years
Type internet

Technical Details

Classification Payload
Mass 297.00 kg
Dry Mass 275.00 kg
Total Mass 297.00 kg
Length 0.20 m
Diameter 2.80 m
Span 9.00 m
Shape Box + pan
Manufacturer SPXS
Bus Type Starlink
Phase Status In Orbit
Owner/State SPXS/US

Most Searched